Temp
6 6 6 6 6 5 4 4 3 3 3 2 2 0 -1 -2 -1 -1 -2 -3 -4 -4 -4 -4 -5 -5 -5 -5 -5 -5 -5 -5 -5 -5 -5 -5 -5 -5 -5 -5 -5 -5 -5
5 5 6 6 5 4 3 3 3 2 2 2 1 -0 -1 -2 -2 -2 -3 -4 -4 -4 -5 -5 -5 -5 -6 -6 -5 -6 -6 -6 -6 -6 -6 -6 -6 -6 -6 -6 -6 -5 -5
5 7 6 5 5 3 2 2 2 2 1 1 -0 -1 -1 -2 -3 -4 -5 -5 -5 -5 -5 -6 -6 -6 -6 -6 -7 -7 -7 -6 -6 -7 -7 -7 -7 -7 -7 -6 -6 -6 -6
5 4 5 5 3 1 1 1 1 1 1 -0 -1 -2 -2 -4 -4 -5 -4 -4 -5 -5 -6 -6 -6 -6 -7 -8 -8 -8 -8 -8 -8 -8 -8 -8 -7 -7 -6 -6 -6 -6 -6
6 4 3 3 2 1 1 1 1 1 -0 -2 -3 -4 -4 -5 -4 -3 -4 -4 -5 -6 -6 -6 -6 -7 -8 -8 -9 -9 -9 -9 -10 -10 -9 -8 -7 -7 -7 -7 -7 -6 -5
4 4 2 2 2 1 1 0 -0 -1 -3 -4 -4 -4 -5 -5 -4 -3 -4 -4 -5 -7 -6 -6 -6 -7 -7 -8 -9 -9 -10 -10 -10 -9 -9 -8 -8 -8 -8 -7 -7 -7 -7
3 3 2 2 1 -0 -1 -2 -2 -3 -3 -4 -4 -5 -5 -5 -5 -4 -4 -5 -5 -7 -6 -7 -7 -7 -7 -8 -9 -10 -10 -10 -10 -9 -9 -9 -9 -9 -8 -7 -7 -7 -7
3 2 1 1 0 -1 -2 -2 -3 -3 -4 -4 -4 -5 -5 -6 -6 -5 -5 -5 -8 -7 -7 -7 -8 -8 -8 -9 -10 -11 -11 -11 -10 -10 -9 -10 -9 -9 -8 -8 -8 -7 -7
2 2 1 1 -0 -1 -2 -2 -3 -3 -4 -4 -5 -5 -6 -6 -6 -5 -5 -6 -8 -8 -8 -9 -9 -9 -9 -10 -11 -12 -12 -11 -11 -10 -10 -9 -9 -9 -9 -9 -8 -8 -7
2 2 1 1 -0 -1 -2 -2 -3 -4 -4 -5 -5 -6 -6 -6 -7 -7 -6 -7 -8 -9 -9 -10 -10 -10 -11 -10 -12 -13 -12 -12 -12 -11 -9 -9 -9 -9 -9 -9 -9 -9 -8
2 1 1 0 0 -1 -2 -2 -3 -4 -5 -5 -6 -6 -6 -7 -7 -7 -6 -7 -9 -9 -11 -10 -10 -11 -10 -9 -11 -12 -13 -13 -11 -11 -11 -10 -10 -9 -9 -9 -9 -9 -9
2 1 0 0 -0 -2 -2 -3 -4 -5 -5 -6 -6 -6 -7 -7 -8 -9 -7 -8 -8 -10 -11 -11 -11 -11 -10 -11 -12 -13 -13 -13 -12 -12 -11 -11 -10 -10 -10 -10 -9 -9 -9
2 1 -0 0 -1 -1 -2 -4 -4 -5 -5 -6 -6 -7 -7 -7 -8 -9 -9 -9 -10 -10 -10 -11 -11 -10 -12 -13 -13 -13 -13 -12 -12 -12 -12 -12 -11 -11 -10 -10 -9 -9 -9
2 1 -1 -1 -2 -2 -2 -3 -5 -5 -6 -6 -7 -7 -8 -8 -9 -9 -10 -9 -9 -10 -10 -10 -10 -11 -12 -12 -12 -13 -13 -13 -13 -13 -12 -12 -12 -12 -11 -11 -10 -9 -9
1 0 -0 -1 -2 -3 -3 -4 -5 -5 -5 -6 -7 -7 -7 -7 -9 -8 -9 -9 -9 -9 -10 -10 -12 -12 -12 -12 -12 -12 -13 -13 -13 -13 -13 -13 -13 -13 -12 -12 -11 -10 -10
2 1 -0 -2 -2 -3 -4 -5 -3 -4 -3 -5 -6 -6 -6 -7 -7 -8 -9 -9 -9 -10 -10 -12 -12 -12 -12 -12 -12 -12 -13 -13 -14 -14 -14 -14 -14 -13 -13 -13 -12 -11 -11
1 1 -1 -2 -1 -3 -4 -4 -5 -3 -4 -5 -5 -6 -6 -7 -8 -8 -9 -9 -9 -11 -13 -12 -12 -12 -12 -12 -13 -13 -13 -13 -14 -14 -15 -15 -15 -14 -14 -13 -13 -12 -11
1 -0 0 -1 -1 -2 -4 -4 -4 -5 -7 -6 -5 -6 -7 -8 -8 -9 -9 -9 -10 -12 -12 -12 -12 -12 -13 -13 -13 -13 -14 -14 -14 -14 -15 -15 -15 -15 -15 -14 -13 -13 -13
0 -1 -0 -2 -1 -2 -4 -4 -4 -6 -7 -8 -9 -9 -8 -8 -8 -9 -10 -11 -13 -12 -12 -12 -13 -13 -13 -13 -14 -14 -14 -14 -15 -15 -15 -15 -15 -15 -15 -15 -14 -14 -14
0 0 -0 -3 -2 -3 -4 -4 -5 -7 -8 -9 -9 -10 -10 -11 -12 -12 -12 -13 -13 -13 -13 -13 -13 -13 -14 -14 -14 -14 -15 -15 -15 -15 -15 -16 -15 -15 -15 -16 -15 -15 -14
1 0 -2 -3 -3 -4 -4 -4 -6 -8 -9 -9 -10 -10 -10 -9 -10 -11 -12 -12 -13 -13 -13 -13 -14 -14 -14 -14 -15 -15 -15 -16 -16 -16 -16 -16 -16 -16 -16 -16 -16 -16 -15
-0 -1 -2 -3 -4 -4 -5 -6 -7 -9 -9 -9 -10 -11 -11 -10 -10 -11 -12 -12 -13 -13 -14 -14 -14 -15 -15 -15 -16 -16 -16 -16 -17 -17 -17 -17 -18 -18 -17 -17 -16 -16 -16
-2 -2 -3 -4 -4 -6 -6 -6 -8 -8 -9 -10 -10 -11 -11 -12 -12 -12 -13 -13 -13 -14 -14 -15 -15 -15 -16 -16 -16 -17 -17 -17 -17 -18 -18 -18 -18 -19 -18 -17 -17 -17 -16
-3 -3 -3 -4 -6 -5 -6 -6 -7 -8 -9 -10 -11 -11 -12 -12 -12 -12 -13 -13 -13 -14 -14 -15 -15 -16 -16 -17 -17 -17 -18 -18 -18 -17 -18 -17 -17 -17 -18 -18 -18 -17 -17
-4 -4 -4 -5 -5 -5 -7 -7 -9 -9 -10 -11 -11 -11 -12 -12 -12 -13 -13 -13 -14 -14 -14 -15 -15 -16 -16 -17 -17 -17 -17 -17 -17 -17 -17 -17 -17 -16 -17 -18 -18 -18 -18
-4 -4 -4 -5 -5 -6 -6 -7 -8 -10 -11 -11 -11 -12 -12 -12 -12 -13 -13 -13 -14 -14 -14 -15 -15 -16 -16 -16 -17 -18 -17 -17 -17 -17 -17 -16 -16 -16 -18 -19 -19 -18 -18
Height
1570 1571 1571 1571 1572 1572 1571 1570 1569 1568 1568 1567 1566 1564 1563 1562 1559 1557 1556 1555 1552 1551 1549 1547 1544 1541 1539 1536 1534 1531 1528 1525 1519 1514 1511 1506 1500 1493 1489 1486 1482 1477 1473
1568 1569 1568 1568 1568 1568 1568 1567 1566 1566 1565 1564 1563 1562 1561 1559 1557 1555 1553 1551 1550 1548 1546 1543 1540 1538 1535 1532 1530 1527 1524 1521 1517 1509 1506 1500 1496 1489 1485 1480 1475 1471 1466
1566 1564 1565 1565 1565 1565 1564 1564 1564 1563 1562 1561 1560 1559 1558 1556 1554 1553 1551 1549 1547 1544 1542 1539 1537 1534 1531 1528 1525 1521 1519 1516 1512 1507 1501 1497 1491 1485 1479 1474 1467 1460 1456
1560 1563 1562 1561 1561 1562 1561 1561 1560 1560 1559 1558 1556 1556 1554 1553 1551 1550 1547 1544 1542 1540 1538 1535 1533 1531 1528 1523 1519 1516 1513 1510 1507 1503 1497 1490 1485 1479 1473 1466 1458 1454 1447
1553 1555 1558 1558 1558 1558 1558 1558 1557 1557 1556 1554 1553 1552 1551 1550 1548 1545 1543 1540 1537 1535 1534 1532 1530 1527 1523 1518 1515 1511 1508 1505 1499 1494 1490 1486 1480 1473 1468 1461 1453 1446 1437
1550 1551 1553 1554 1554 1554 1554 1554 1553 1553 1552 1551 1550 1549 1548 1547 1542 1541 1539 1536 1533 1531 1530 1528 1526 1523 1520 1515 1511 1507 1503 1499 1494 1489 1483 1478 1474 1470 1463 1457 1449 1440 1430
1545 1546 1548 1549 1550 1551 1551 1551 1550 1550 1549 1548 1547 1546 1544 1543 1538 1536 1534 1531 1528 1528 1526 1524 1521 1518 1515 1510 1504 1500 1495 1493 1490 1485 1479 1475 1467 1463 1458 1449 1442 1436 1426
1541 1542 1543 1545 1546 1547 1547 1547 1546 1546 1545 1544 1543 1542 1540 1539 1534 1532 1530 1526 1525 1524 1522 1519 1516 1513 1509 1501 1497 1492 1488 1484 1482 1479 1474 1468 1463 1457 1452 1446 1438 1428 1419
1536 1537 1539 1540 1541 1543 1543 1543 1543 1541 1541 1540 1539 1537 1536 1535 1529 1527 1525 1522 1521 1519 1516 1513 1509 1506 1503 1495 1490 1485 1480 1475 1474 1471 1465 1460 1456 1452 1447 1439 1431 1423 1412
1531 1533 1534 1535 1536 1538 1538 1539 1538 1537 1535 1535 1533 1532 1530 1528 1524 1521 1520 1518 1515 1513 1509 1506 1503 1499 1494 1489 1483 1477 1471 1468 1465 1459 1456 1452 1450 1445 1441 1436 1428 1418 1409
1527 1528 1529 1530 1531 1532 1533 1532 1532 1531 1531 1530 1529 1528 1526 1525 1524 1516 1515 1512 1510 1506 1503 1501 1498 1493 1488 1482 1477 1471 1466 1461 1456 1453 1450 1447 1443 1438 1433 1428 1422 1415 1404
1521 1522 1522 1523 1525 1526 1527 1527 1527 1527 1526 1525 1524 1523 1521 1520 1518 1513 1509 1507 1504 1501 1499 1496 1492 1486 1480 1475 1470 1466 1461 1455 1450 1448 1444 1440 1436 1431 1426 1421 1414 1407 1400
1515 1516 1517 1518 1518 1519 1520 1522 1522 1522 1521 1520 1519 1518 1517 1515 1513 1509 1506 1502 1500 1497 1493 1489 1484 1479 1474 1470 1467 1461 1457 1453 1448 1443 1438 1434 1430 1425 1420 1415 1409 1401 1393
1507 1508 1510 1512 1513 1512 1513 1515 1515 1515 1515 1514 1513 1513 1511 1510 1508 1507 1503 1499 1496 1492 1488 1483 1478 1474 1471 1468 1463 1459 1454 1449 1445 1440 1435 1429 1424 1420 1415 1411 1404 1397 1389
1500 1504 1505 1503 1506 1509 1507 1508 1508 1508 1508 1508 1507 1506 1505 1503 1502 1498 1496 1493 1490 1487 1482 1478 1474 1472 1468 1464 1460 1455 1451 1445 1441 1436 1430 1425 1420 1416 1411 1406 1401 1395 1388
1492 1493 1496 1499 1496 1502 1504 1501 1501 1501 1501 1501 1500 1500 1498 1497 1495 1493 1491 1488 1485 1481 1477 1473 1471 1468 1464 1460 1456 1451 1447 1442 1437 1432 1427 1422 1417 1412 1406 1402 1398 1393 1387
1485 1486 1488 1490 1489 1494 1496 1494 1494 1493 1494 1494 1494 1493 1492 1491 1489 1487 1485 1483 1480 1477 1473 1472 1468 1465 1460 1456 1452 1447 1442 1438 1433 1428 1423 1418 1413 1408 1403 1399 1394 1390 1385
1479 1480 1479 1484 1483 1486 1490 1488 1488 1488 1487 1487 1486 1486 1485 1484 1483 1481 1479 1476 1474 1474 1471 1468 1464 1460 1456 1452 1447 1443 1438 1433 1428 1424 1419 1414 1409 1405 1399 1395 1392 1387 1383
1470 1471 1471 1473 1477 1478 1482 1482 1482 1482 1482 1482 1482 1480 1479 1478 1477 1476 1473 1470 1470 1469 1467 1463 1459 1455 1451 1447 1442 1438 1433 1428 1424 1419 1415 1410 1406 1401 1396 1392 1388 1384 1380
1462 1464 1465 1467 1471 1473 1475 1475 1477 1477 1477 1476 1476 1476 1476 1474 1472 1471 1470 1469 1467 1464 1461 1458 1454 1450 1445 1441 1437 1433 1428 1424 1420 1415 1411 1406 1402 1398 1393 1388 1384 1380 1377
1454 1457 1459 1463 1465 1468 1469 1470 1471 1472 1472 1471 1471 1470 1469 1469 1468 1466 1465 1464 1462 1459 1456 1452 1448 1444 1440 1436 1433 1428 1424 1419 1415 1410 1406 1402 1397 1392 1388 1384 1380 1376 1373
1449 1450 1454 1458 1460 1462 1463 1464 1466 1466 1466 1466 1466 1466 1463 1463 1461 1460 1460 1458 1456 1453 1450 1447 1443 1439 1435 1431 1427 1423 1418 1414 1409 1405 1401 1395 1391 1386 1383 1379 1375 1372 1369
1443 1445 1450 1453 1455 1457 1458 1459 1460 1461 1461 1461 1461 1461 1460 1458 1457 1456 1454 1453 1450 1447 1444 1440 1436 1432 1429 1425 1420 1416 1412 1408 1404 1399 1393 1388 1383 1379 1376 1373 1370 1367 1364
1438 1443 1446 1448 1450 1453 1453 1454 1455 1455 1456 1457 1456 1455 1455 1454 1452 1451 1449 1447 1444 1441 1437 1433 1428 1424 1421 1417 1413 1409 1406 1401 1396 1391 1386 1381 1376 1372 1368 1366 1363 1361 1359
1436 1438 1442 1443 1446 1448 1449 1450 1450 1451 1451 1451 1450 1450 1449 1448 1447 1446 1444 1441 1438 1434 1431 1427 1423 1418 1414 1409 1405 1401 1397 1393 1389 1385 1379 1374 1369 1365 1361 1358 1356 1354 1353
1432 1437 1438 1440 1442 1443 1444 1445 1445 1446 1446 1445 1445 1444 1444 1443 1442 1440 1438 1435 1432 1429 1425 1421 1416 1412 1407 1402 1397 1394 1390 1386 1382 1377 1372 1366 1362 1358 1355 1353 1350 1349 1348
Wind_Speed
13 11 11 10 10 10 9 9 8 9 9 10 11 10 11 11 12 12 11 10 12 12 13 13 15 16 16 18 18 17 18 19 26 28 28 29 33 35 35 33 34 36 36
14 12 12 12 11 11 9 9 9 8 10 10 11 9 10 11 12 11 11 11 12 13 14 15 16 16 17 17 17 19 20 20 24 30 29 33 32 34 34 36 37 35 37
15 14 13 12 11 9 9 9 9 9 10 10 10 10 11 12 10 10 10 12 12 14 15 16 17 17 18 17 19 21 21 21 23 27 32 31 33 35 35 37 38 42 43
15 14 14 12 10 9 9 9 11 11 11 11 10 10 11 10 9 9 12 14 14 14 15 16 17 17 18 19 21 20 21 23 25 26 31 35 37 37 37 39 43 45 47
19 16 14 12 10 10 10 11 12 12 11 10 9 9 10 10 10 14 16 17 16 16 15 16 17 19 26 22 20 23 23 25 31 34 34 35 37 37 38 43 45 49 52
18 16 14 12 11 11 11 11 11 11 9 9 9 9 9 8 18 15 17 19 18 15 16 17 18 19 17 22 21 22 28 31 30 33 35 37 35 36 39 40 45 47 46
18 16 15 14 12 12 11 10 10 9 9 10 9 10 10 11 20 18 18 19 18 14 16 18 19 18 21 21 20 26 28 27 27 29 34 31 38 38 38 41 45 47 48
19 17 16 15 13 12 11 11 10 10 10 10 10 10 10 12 21 21 18 19 15 14 16 17 18 19 20 28 32 30 28 26 24 25 30 35 33 34 36 39 42 44 45
20 18 17 16 14 12 12 12 11 11 10 10 11 11 11 11 22 22 18 18 13 15 16 17 18 18 21 29 32 27 29 29 24 25 31 31 27 30 33 35 37 41 41
20 19 17 17 15 14 13 12 12 12 12 11 11 11 12 15 17 23 19 17 16 15 18 18 18 22 27 31 29 28 30 29 27 30 30 28 27 28 29 29 32 38 41
19 19 19 18 16 15 14 15 14 12 11 11 12 11 12 12 13 23 20 18 15 18 17 18 20 24 29 31 28 28 26 29 32 30 27 29 27 28 30 31 32 33 39
20 20 20 19 17 15 16 14 14 12 12 12 11 12 12 10 14 19 22 20 20 18 19 20 23 29 32 28 24 25 27 27 25 25 28 29 28 28 30 31 33 34 33
22 22 20 20 18 18 15 13 12 12 13 12 12 11 11 11 11 17 20 21 22 21 22 23 29 31 25 23 24 26 25 22 24 26 28 29 30 28 29 30 31 33 34
24 23 21 20 19 18 17 15 14 15 14 13 13 13 12 12 11 11 15 21 21 21 22 27 29 23 22 25 26 25 24 23 23 25 27 29 32 27 27 27 29 32 34
25 22 22 21 22 17 16 14 15 14 15 15 15 16 17 17 14 19 20 21 22 23 26 27 22 19 22 23 23 25 25 24 25 25 27 28 27 29 28 26 25 29 30
29 25 24 22 19 19 17 18 20 20 20 19 20 20 20 19 18 18 19 20 21 23 25 20 19 21 22 23 23 24 24 24 24 25 26 25 27 27 28 28 23 25 27
27 28 24 29 21 20 19 18 17 20 19 19 19 19 19 18 18 18 19 20 20 20 17 17 20 21 21 22 22 23 25 24 27 26 26 26 26 26 26 25 25 24 26
29 31 27 26 24 22 21 18 17 17 18 18 18 17 17 17 17 17 19 20 18 12 16 18 19 20 21 21 22 23 24 25 24 26 28 26 26 25 26 24 23 24 26
37 36 32 29 27 23 22 19 18 18 17 15 13 18 18 16 14 16 17 16 13 16 17 18 19 20 21 21 22 24 24 25 26 27 27 27 26 25 25 24 24 24 24
37 37 32 29 26 24 20 20 18 17 16 15 14 13 10 14 14 13 13 14 15 16 18 19 19 20 21 22 23 24 24 24 24 25 26 26 26 24 25 25 24 24 22
35 34 30 28 26 23 18 19 17 16 15 14 14 14 17 16 18 16 13 13 15 16 18 19 20 21 22 22 22 22 23 24 24 24 24 25 26 28 25 24 24 22 22
33 32 30 29 26 20 18 16 16 15 15 15 13 12 20 18 16 13 13 14 15 17 18 19 21 21 21 21 22 23 24 25 24 24 25 27 26 27 26 24 24 23 21
33 32 28 26 23 18 19 17 16 16 15 13 12 12 13 14 14 14 14 15 17 18 19 20 21 22 21 21 22 22 23 23 24 25 28 30 29 26 25 26 24 23 21
32 28 26 22 18 19 18 18 16 16 14 13 15 14 14 14 15 15 16 17 18 20 20 22 22 24 24 25 23 22 23 25 25 29 30 32 33 30 27 25 24 23 23
28 28 24 19 18 18 18 16 14 14 13 14 13 13 13 14 15 16 17 19 21 20 21 24 25 24 25 27 29 28 26 27 30 31 33 33 33 31 28 26 23 21 21
25 23 19 17 18 18 16 16 15 14 13 13 13 13 14 15 15 17 18 20 22 23 25 26 27 27 29 29 27 25 28 29 30 30 32 33 33 30 26 24 23 21 21
Wind_Direction
214 215 232 247 258 268 274 282 281 290 303 310 316 324 323 325 329 332 328 330 324 322 321 318 318 319 317 317 314 312 309 309 307 309 311 313 311 309 309 309 310 309 309
210 220 234 252 259 265 266 269 275 282 299 304 311 313 313 317 323 323 323 320 321 320 317 317 316 315 315 315 312 309 307 308 308 309 312 312 311 310 308 306 306 306 302
215 228 239 250 255 253 255 261 275 284 291 298 301 302 306 309 317 316 320 318 317 314 314 312 313 313 314 313 311 308 307 307 308 307 307 311 310 310 312 312 311 311 309
215 225 238 243 243 245 251 261 273 281 289 291 293 296 303 308 308 301 312 314 315 310 309 308 310 309 307 306 310 307 306 306 303 303 304 313 317 319 316 313 311 311 309
223 216 229 236 234 235 250 261 270 280 282 284 290 290 295 299 288 302 314 317 315 312 310 308 306 298 307 315 308 306 303 300 301 306 309 310 314 318 317 314 312 313 312
210 216 218 227 233 240 250 256 267 280 284 281 282 281 286 291 284 308 317 318 319 312 309 306 305 308 306 302 313 302 291 297 302 305 306 308 310 310 315 316 316 315 309
208 215 217 231 235 238 246 250 264 266 266 273 273 277 281 281 290 311 318 318 319 310 307 306 306 306 309 302 292 298 305 300 296 303 301 301 302 310 315 315 316 312 308
211 214 217 229 229 231 236 244 254 261 263 267 268 272 279 281 283 304 316 319 312 305 304 304 304 306 307 297 298 306 306 302 299 294 292 295 305 314 313 310 307 309 305
214 214 221 225 226 228 234 243 247 254 260 264 266 272 274 277 285 301 319 317 306 306 303 305 304 307 298 290 302 310 305 303 300 292 290 305 313 313 311 312 316 315 304
217 218 222 226 227 226 235 239 253 258 264 262 267 271 274 286 287 295 313 315 309 307 307 311 308 300 293 302 309 309 305 306 299 301 307 310 310 311 313 320 314 320 314
218 219 222 230 235 234 235 248 254 257 256 260 267 273 274 273 266 287 311 315 310 307 312 310 308 303 308 312 310 310 306 303 302 303 308 303 309 311 315 320 325 320 317
214 217 221 228 231 229 240 248 255 255 257 262 268 270 271 268 277 284 306 313 319 316 308 306 302 306 315 315 320 314 311 320 318 305 299 304 305 310 316 322 325 324 322
211 214 219 228 228 235 239 243 242 248 253 258 264 268 269 271 277 289 304 311 314 308 310 306 308 315 321 321 313 318 322 317 309 309 305 303 302 305 313 321 324 328 327
210 213 215 222 228 232 239 237 242 249 251 256 259 262 266 271 275 277 274 298 308 309 308 312 314 323 327 318 319 318 316 314 313 311 308 306 305 305 306 316 325 330 333
212 214 214 212 230 228 233 241 248 251 254 258 259 262 271 279 276 287 297 303 309 312 312 313 317 319 314 314 314 316 317 316 316 313 308 309 313 312 308 314 323 327 330
220 213 211 217 217 229 227 242 254 255 273 268 267 272 276 281 287 291 297 303 308 311 310 311 315 311 311 313 314 314 316 317 315 313 315 316 311 310 311 313 318 324 325
215 218 213 223 224 227 233 241 249 275 270 268 272 273 276 282 288 295 300 303 308 308 308 307 305 307 309 310 311 313 313 313 315 317 314 313 315 314 314 313 314 317 320
213 219 223 231 225 231 244 249 257 257 268 283 280 275 276 281 287 296 301 303 309 308 300 301 303 306 307 309 311 311 311 312 314 314 315 314 313 314 312 312 311 310 313
220 222 225 234 228 244 245 252 257 258 259 261 262 277 291 290 289 297 303 314 307 302 303 301 303 306 307 308 307 308 310 313 314 315 314 315 313 312 312 309 307 308 310
226 228 237 229 229 246 243 251 252 251 253 255 259 259 256 274 287 291 284 282 290 296 300 303 306 305 305 306 307 309 311 311 312 312 310 312 313 309 308 310 309 307 306
225 231 231 222 231 244 247 248 245 245 248 252 258 265 258 267 280 285 284 285 291 298 301 304 305 305 305 305 305 306 305 307 309 309 311 309 307 307 306 306 305 305 303
225 231 224 221 235 240 243 240 243 243 247 253 257 257 275 286 286 286 286 289 294 299 302 301 300 300 302 302 302 303 304 304 308 308 306 304 307 305 305 303 303 303 301
227 225 219 221 235 234 239 238 241 246 251 254 252 257 262 274 277 279 284 288 292 297 299 298 299 300 300 299 297 299 301 303 303 301 303 307 308 306 304 300 299 299 298
222 223 217 233 226 234 240 246 240 246 246 245 254 261 265 269 272 276 281 287 290 298 304 306 307 305 303 303 302 299 297 297 302 308 311 309 308 308 305 299 295 293 293
215 216 231 229 237 237 239 240 248 249 247 256 264 265 269 272 275 279 282 285 294 300 305 308 307 307 306 307 306 306 307 311 313 313 311 310 308 307 305 302 298 295 293
212 226 230 230 236 242 244 249 254 253 254 257 265 266 272 273 276 278 283 290 296 300 303 310 312 309 307 306 308 306 311 313 312 310 312 311 310 308 303 296 293 288 286